Regional Weather Roundup
Issued by NWS Albany, NY

Home | Current Version | Previous Version | Text Only | Print | Product List | Glossary On
Versions: 1 2 3 4 5 6 7 8 9 10 11 12 13 14 15 16 17 18 19 20 21 22 23 24 25 26 27 28 29 30 31 32 33 34 35 36 37 38 39 40 41 42 43 44 45 46 47 48 49 50
000
ASUS41 KALY 281310
RWRALY

NEW YORK STATE HOURLY WEATHER ROUNDUP
NATIONAL WEATHER SERVICE ALBANY NY
800 AM EST FRI NOV 28 2014

NOTE: "FAIR" INDICATES FEW OR NO CLOUDS BELOW 12,000 FEET WITH NO
SIGNIFICANT WEATHER AND/OR NO OBSTRUCTIONS TO VISIBILITY.

NYZ032-033-038>043-046>054-057>066-NYZ062>081-281400-
EAST


CITY           SKY/WX    TMP DP  RH WIND       PRES   REMARKS
ALBANY         PTCLDY    26  18  71 W12       30.12R WCI  16
GLENS FALLS    PTCLDY    23  21  92 CALM      30.10R FOG
POUGHKEEPSIE   MOCLDY    22  18  85 CALM      30.14R
NEWBURGH       PTCLDY    23  21  93 W7        30.13R WCI  15
MONTGOMERY     CLEAR     26  19  74 NW10      30.13R WCI  16
WHITE PLAINS   PTCLDY    30  22  72 NW10      30.11R WCI  21
ISLIP          PTCLDY    33  23  66 NW13      30.11R WCI  24
NEW YORK CITY  PTCLDY    32  23  69 NW14      30.14R WCI  22
CENTRAL PARK   CLEAR     32  22  66 VRB5      30.16R WCI  27
$$

NYZ005>009-017-018-044>046-055-056-281400-
CENTRAL


CITY           SKY/WX    TMP DP  RH WIND       PRES   REMARKS
FULTON         LGT SNOW  27  23  85 W7        30.17R FOG     WCI  19
SYRACUSE       LGT SNOW  26  21  81 W16       30.18R BLWGSNOWWCI  14
ROME           CLOUDY    22  19  89 CALM      30.17R
ELMIRA         PTCLDY    24  13  62 SW7       30.21R WCI  16
BINGHAMTON     FLURRIES  31  17  56 NW12G20   30.11R WCI  22
MONTICELLO     CLOUDY    25  18  74 NW10      30.10R WCI  15
$$

NYZ026>034-041>043-281400-
NORTH


CITY           SKY/WX    TMP DP  RH WIND       PRES   REMARKS
WATERTOWN      LGT SNOW  22  17  81 CALM      30.16R
FORT DRUM      NOT AVBL
MASSENA        PTCLDY    20  15  81 SW7       30.14R WCI  11
SARANAC LAKE   MOCLDY    16  32 100 W9        30.01R WCI   4
PLATTSBURGH    CLOUDY    25  17  72 CALM      30.10R
$$

NYZ001>004-010>016-019>021-281400-
WEST


CITY           SKY/WX    TMP DP  RH WIND       PRES   REMARKS
NIAGARA FALLS  LGT SNOW  21  14  74 W18       30.25R WCI   6
BUFFALO        MOCLDY    21  12  68 W12G21    30.25R WCI   9
DUNKIRK        CLOUDY    25  12  58 W10G21    30.27S WCI  15
JAMESTOWN      CLOUDY    19  14  79 W9        30.19S WCI   9
WELLSVILLE     FLURRIES  19  14  81 NW7       30.15R WCI  10
ROCHESTER      LGT SNOW  24  17  74 W14       30.22R WCI  12
PENN YAN       CLOUDY    24  14  65 W8        30.20R WCI  15
$$

             KEY
       WCI = WIND CHILL INDEX
       VSB = VISIBILITY
       HX  = HEAT INDEX
$$


USA.gov is the U.S. government's official web portal to all federal, state and local government web resources and services.